Regional Weather Roundup
Issued by NWS Albany, NY

Home | Current Version | Previous Version | Text Only | Print | Product List | Glossary On
Versions: 1 2 3 4 5 6 7 8 9 10 11 12 13 14 15 16 17 18 19 20 21 22 23 24 25 26 27 28 29 30 31 32 33 34 35 36 37 38 39 40 41 42 43 44 45 46 47 48 49 50
265
ASUS41 KALY 241710
RWRALY

NEW YORK STATE HOURLY WEATHER ROUNDUP
NATIONAL WEATHER SERVICE ALBANY NY
100 PM EDT SAT JUN 24 2017

NOTE: "FAIR" INDICATES FEW OR NO CLOUDS BELOW 12,000 FEET WITH NO
SIGNIFICANT WEATHER AND/OR NO OBSTRUCTIONS TO VISIBILITY.

NYZ032-033-038>043-046>054-057>066-NYZ062>081-082-084-241800-
EAST


CITY           SKY/WX    TMP DP  RH WIND       PRES   REMARKS
ALBANY         MOSUNNY   79  59  50 NW22G30   29.69R
GLENS FALLS    NOT AVBL
POUGHKEEPSIE   MOSUNNY   83  55  38 W17G25    29.69R
NEWBURGH       MOSUNNY   82  57  42 NW23G31   29.73R
MONTGOMERY     SUNNY     83  55  38 NW16G23   29.72R
WHITE PLAINS   MOSUNNY   82  57  42 NW15G28   29.71R
ISLIP          PTSUNNY   84  66  54 W14G25    29.68R
NEW YORK CITY  MOSUNNY   83  56  39 NW18G31   29.70R
CENTRAL PARK   SUNNY     82  56  40 W15G25    29.75R
$$

NYZ005>009-017-018-044>046-055-056-241800-
CENTRAL


CITY           SKY/WX    TMP DP  RH WIND       PRES   REMARKS
FULTON         SUNNY     75  55  49 W15       29.76R
SYRACUSE       MOSUNNY   76  55  48 W18       29.75R
ROME           MOSUNNY   77  55  46 W20G28    29.75R
ELMIRA         NOT AVBL
BINGHAMTON     SUNNY     72  50  46 NW12G21   29.82
MONTICELLO     MOSUNNY   75  54  46 NW17      29.80S
$$

NYZ026>034-041>043-087-241800-
NORTH


CITY           SKY/WX    TMP DP  RH WIND       PRES   REMARKS
WATERTOWN      SUNNY     73  61  65 SW14G23   29.72R
FORT DRUM      NOT AVBL
OGDENSBURG     FAIR      79  58  49 W9        29.64S
MASSENA        MOSUNNY   79  62  56 SW10      29.63S
SARANAC LAKE   MOSUNNY   70  58  65 W8G17     29.69R
PLATTSBURGH    PTSUNNY   75  58  55 E9        29.61R
$$

NYZ001>004-010>016-019>021-085-241800-
WEST


CITY           SKY/WX    TMP DP  RH WIND       PRES   REMARKS
NIAGARA FALLS  SUNNY     78  52  40 NW14      29.78R
BUFFALO        MOSUNNY   73  62  68 SW17      29.79R
DUNKIRK        MOSUNNY   71  61  70 SW17G26   29.83R
JAMESTOWN      PTSUNNY   72  54  53 W12G22    29.86S
WELLSVILLE     MOSUNNY   75  54  47 W16G23    29.86S
ROCHESTER      PTSUNNY   75  54  47 W9        29.77R
PENN YAN       PTSUNNY   77  52  41 W14       29.79R
$$

             KEY
       WCI = WIND CHILL INDEX
       VSB = VISIBILITY
       HX  = HEAT INDEX
$$




USA.gov is the U.S. government's official web portal to all federal, state and local government web resources and services.